Warrensburg, MO

5:40 AM CDT on May 24, 2017 (GMT -0500)
Skyhaven

Weather History for KRCM - March, 2014

Change the Weather History Date:

Monday, March 17, 2014

  Actual Average (KSZL) Record (KSZL)
Temperature  
Mean Temperature - -  
Max Temperature - 52 °F 79 °F (2009)
Min Temperature - 32 °F 16 °F (2014)
Moisture  
Dew Point -    
Average Humidity    
Maximum Humidity    
Minimum Humidity    
Precipitation  
Precipitation 0.05 in - - ()
Sea Level Pressure  
Sea Level Pressure 29.85 in    
Wind  
Wind Speed 4 mph (SSE)    
Max Wind Speed 14 mph    
Max Gust Speed 18 mph    
Visibility 10 miles    
Events      
Averages and records for this station are not official NWS values.
T = Trace of Precipitation, MM = Missing Value Source: NWS Daily Summary

Daily Weather History Graph

Daily Weather History Graph

Search for Another Location

Airport or City:

Trip Planner

Search our weather history database for the weather conditions in past years. The results will help you decide how hot, cold, wet, or windy it might be!

Date:

Astronomy

Mar. 17, 2014 Rise Set
Actual Time 7:23 AM CDT 7:24 PM CDT
Civil Twilight 6:56 AM CDT 7:50 PM CDT
Nautical Twilight 6:25 AM CDT 8:21 PM CDT
Astronomical Twilight 5:54 AM CDT 8:53 PM CDT
Moon 8:40 PM CDT (3/17) 7:40 AM CDT (3/17)
Length of Visible Light 12h 53m
Length of Day
12h 00m
Full, 99% of the Moon is Illuminated
Mar 17
Full
Mar 23
Last Quarter
Mar 30
New
Apr 7
First Quarter
Apr 15
Full

Hourly Weather History & Observations

Time (CDT) Temp. Dew Point Humidity Pressure Visibility Wind Dir Wind Speed Gust Speed Precip Events Conditions
12:15 AM - - N/A% 30.12 in 10.0 mi NNE 4.6 mph - N/A   Clear
12:35 AM - - N/A% 30.11 in 10.0 mi NNE 3.5 mph - 0.01 in   Clear
12:55 AM - - N/A% 30.09 in 10.0 mi Calm Calm - 0.01 in   Clear
1:15 AM - - N/A% 30.08 in 10.0 mi Calm Calm - N/A   Clear
1:35 AM - - N/A% 30.08 in 10.0 mi Calm Calm - N/A   Clear
1:55 AM - - N/A% 30.08 in 10.0 mi North 3.5 mph - N/A   Clear
2:15 AM - - N/A% 30.08 in 10.0 mi Calm Calm - N/A   Clear
2:35 AM - - N/A% 30.07 in 10.0 mi Calm Calm - N/A   Clear
2:55 AM - - N/A% 30.05 in 10.0 mi Calm Calm - N/A   Clear
3:15 AM - - N/A% 30.04 in 10.0 mi Calm Calm - 0.01 in   Clear
3:35 AM - - N/A% 30.03 in 10.0 mi Calm Calm - 0.01 in   Clear
3:55 AM - - N/A% 30.02 in 10.0 mi Calm Calm - 0.01 in   Clear
4:15 AM - - N/A% 30.02 in 10.0 mi Calm Calm - N/A   Clear
4:35 AM - - N/A% 30.02 in 10.0 mi WNW 3.5 mph - N/A   Clear
4:55 AM - - N/A% 30.01 in 10.0 mi WNW 3.5 mph - N/A   Clear
5:15 AM - - N/A% 30.00 in 10.0 mi WNW 3.5 mph - N/A   Clear
5:35 AM - - N/A% 29.99 in 10.0 mi Calm Calm - N/A   Clear
5:55 AM - - N/A% 29.99 in 10.0 mi Calm Calm - N/A   Clear
6:15 AM - - N/A% 29.99 in 10.0 mi Calm Calm - 0.01 in   Clear
6:35 AM - - N/A% 29.97 in 10.0 mi Calm Calm - 0.01 in   Clear
6:55 AM - - N/A% 29.97 in 10.0 mi Calm Calm - 0.01 in   Clear
7:15 AM - - N/A% 29.97 in 10.0 mi Calm Calm - N/A   Clear
7:35 AM - - N/A% 29.97 in 10.0 mi Calm Calm - N/A   Clear
7:55 AM - - N/A% 29.97 in 10.0 mi Calm Calm - N/A   Clear
8:15 AM - - N/A% 29.97 in 10.0 mi Calm Calm - N/A   Clear
8:35 AM - - N/A% 29.97 in 10.0 mi SE 3.5 mph - N/A   Clear
8:55 AM - - N/A% 29.98 in 10.0 mi Calm Calm - N/A   Clear
9:55 AM - - N/A% 29.94 in 10.0 mi SSE 6.9 mph - N/A   Clear
10:15 AM - - N/A% 29.93 in 10.0 mi SSE 8.1 mph - N/A   Clear
10:35 AM - - N/A% 29.92 in 10.0 mi South 6.9 mph - N/A   Clear
10:55 AM - - N/A% 29.92 in 10.0 mi South 6.9 mph - N/A   Clear
11:15 AM - - N/A% 29.90 in 10.0 mi SSE 8.1 mph - N/A   Clear
11:35 AM - - N/A% 29.90 in 10.0 mi SSE 6.9 mph - N/A   Clear
11:55 AM - - N/A% 29.88 in 10.0 mi SSE 8.1 mph - N/A   Clear
12:15 PM - - N/A% 29.88 in 10.0 mi SSE 4.6 mph - N/A   Clear
12:35 PM - - N/A% 29.87 in 10.0 mi SE 6.9 mph - N/A   Clear
12:55 PM - - N/A% 29.85 in 10.0 mi South 8.1 mph - N/A   Clear
1:15 PM - - N/A% 29.83 in 10.0 mi SSE 6.9 mph - 0.01 in   Clear
1:35 PM - - N/A% 29.80 in 10.0 mi SSE 8.1 mph - 0.01 in   Clear
1:55 PM - - N/A% 29.79 in 10.0 mi South 8.1 mph - 0.01 in   Clear
2:15 PM - - N/A% 29.78 in 10.0 mi SSE 8.1 mph - N/A   Clear
2:35 PM - - N/A% 29.77 in 10.0 mi SSE 11.5 mph - N/A   Clear
2:55 PM - - N/A% 29.75 in 10.0 mi SSE 9.2 mph - N/A   Clear
3:15 PM - - N/A% 29.74 in 10.0 mi SE 11.5 mph 16.1 mph N/A   Clear
3:35 PM - - N/A% 29.73 in 10.0 mi South 10.4 mph - N/A   Clear
3:55 PM - - N/A% 29.72 in 10.0 mi SSE 11.5 mph - N/A   Clear
4:15 PM - - N/A% 29.71 in 10.0 mi SSE 12.7 mph 16.1 mph N/A   Clear
4:35 PM - - N/A% 29.70 in 10.0 mi SSE 11.5 mph 16.1 mph N/A   Clear
4:55 PM - - N/A% 29.70 in 10.0 mi SSE 13.8 mph - N/A   Clear
5:15 PM - - N/A% 29.69 in 10.0 mi SSE 13.8 mph 18.4 mph N/A   Clear
5:35 PM - - N/A% 29.68 in 10.0 mi SSE 10.4 mph - N/A   Clear
5:55 PM - - N/A% 29.69 in 10.0 mi SSE 9.2 mph - N/A   Clear
6:15 PM - - N/A% 29.68 in 10.0 mi SSE 10.4 mph - N/A   Clear
6:35 PM - - N/A% 29.68 in 10.0 mi SSE 8.1 mph - N/A   Clear
6:55 PM - - N/A% 29.68 in 10.0 mi SSE 8.1 mph - N/A   Clear
7:15 PM - - N/A% 29.68 in 10.0 mi SSE 8.1 mph - N/A   Clear
7:35 PM - - N/A% 29.69 in 10.0 mi SSE 6.9 mph - N/A   Clear
7:55 PM - - N/A% 29.68 in 10.0 mi SSE 6.9 mph - N/A   Clear
8:15 PM - - N/A% 29.68 in 10.0 mi SSE 8.1 mph - 0.01 in   Clear
8:35 PM - - N/A% 29.69 in 10.0 mi SE 5.8 mph - 0.01 in   Clear
8:55 PM - - N/A% 29.68 in 10.0 mi SE 8.1 mph - 0.01 in   Clear
9:15 PM - - N/A% 29.67 in 10.0 mi SE 9.2 mph - N/A   Clear
9:35 PM - - N/A% 29.66 in 10.0 mi SE 9.2 mph - N/A   Clear
9:55 PM - - N/A% 29.66 in 10.0 mi SE 10.4 mph - N/A   Clear
10:15 PM - - N/A% 29.65 in 10.0 mi SSE 10.4 mph - N/A   Clear
10:35 PM - - N/A% 29.66 in 10.0 mi SSE 8.1 mph - N/A   Clear
10:55 PM - - N/A% 29.66 in 10.0 mi SSE 8.1 mph - N/A   Clear
11:15 PM - - N/A% 29.66 in 10.0 mi SSE 10.4 mph - N/A   Clear
11:35 PM - - N/A% 29.66 in 10.0 mi SSE 10.4 mph - N/A   Clear
11:55 PM - - N/A% 29.65 in 10.0 mi SSE 11.5 mph - N/A   Clear